Weather History for Rockford, IL

Change the Weather History Date:

Wednesday, November 7, 2012

  Actual Average Record
Temperature  
Mean Temperature 42 °F 43 °F  
Max Temperature 44 °F 53 °F 78 °F (1915)
Min Temperature 39 °F 34 °F 7 °F (1991)
Degree Days  
Heating Degree Days 23 22  
Month to date heating degree days 184 142  
Since 1 July heating degree days 777 695  
Cooling Degree Days 0 0  
Month to date cooling degree days 0 0  
Year to date cooling degree days 1227 820  
Moisture  
Dew Point 38 °F    
Average Humidity 88    
Maximum Humidity 100    
Minimum Humidity 76    
Precipitation  
Precipitation T in 0.08 in 0.93 in (1938)
Month to date precipitation 0.15 0.63  
Year to date precipitation 20.41 32.31  
Snow  
Snow 0.00 in 0.10 in 3.10 in (1951)
Month to date snowfall T 0.1  
Since 1 July snowfall T 0.2  
Since 1 September snowfall T 0.2  
Snow Depth 0.00 in    
Sea Level Pressure  
Sea Level Pressure 30.06 in    
Wind  
Wind Speed 4 mph (North)    
Max Wind Speed 10 mph    
Max Gust Speed 12 mph    
Visibility 4 miles    
Events Rain    
T = Trace of Precipitation, MM = Missing Value Source: NWS Daily Summary

Daily Weather History Graph

Daily Weather History Graph

Search for Another Location

Airport:

Trip Planner

Search our weather history database for the weather conditions in past years. The results will help you decide how hot, cold, wet, or windy it might be!

Date:

Astronomy

Nov. 07, 2012 Rise Set
Actual Time 6:37 AM CST 4:42 PM CST
Civil Twilight 6:07 AM CST 5:11 PM CST
Nautical Twilight 5:34 AM CST 5:45 PM CST
Astronomical Twilight 5:01 AM CST 6:17 PM CST
Moon No Moon Rise 12:58 PM CST (11/7)
Length of Visible Light 11h 03m
Length of Day
10h 04m
Last Quarter, 43% of the Moon is Illuminated
Nov 7
Last Quarter
Nov 13
New
Nov 20
First Quarter
Nov 28
Full
Dec 6
Last Quarter

Hourly Weather History & Observations

Time (CST) Temp. Windchill Dew Point Humidity Pressure Visibility Wind Dir Wind Speed Gust Speed Precip Events Conditions
12:38 AM 39.2 °F 35.0 °F 39.2 °F 100% 29.90 in 2.0 mi NNW 5.8 mph - N/A   Overcast
12:47 AM 39.2 °F 34.2 °F 39.2 °F 100% 29.90 in 2.0 mi NNW 6.9 mph - N/A   Overcast
12:54 AM 39.9 °F 35.1 °F 37.9 °F 93% 29.92 in 2.0 mi NNW 6.9 mph - N/A   Overcast
1:12 AM 39.2 °F 34.2 °F 37.4 °F 93% 29.90 in 2.0 mi NNW 6.9 mph - N/A   Overcast
1:44 AM 39.2 °F 34.2 °F 37.4 °F 93% 29.91 in 2.0 mi NNW 6.9 mph - N/A   Overcast
1:52 AM 39.2 °F 34.2 °F 37.4 °F 93% 29.92 in 2.0 mi NNW 6.9 mph - N/A   Overcast
1:54 AM 39.9 °F 35.1 °F 37.9 °F 93% 29.94 in 2.0 mi NNW 6.9 mph - N/A   Overcast
2:26 AM 39.2 °F 34.2 °F 37.4 °F 93% 29.92 in 2.0 mi NNW 6.9 mph - N/A   Overcast
2:50 AM 39.2 °F 35.0 °F 37.4 °F 93% 29.93 in 2.0 mi North 5.8 mph - N/A   Overcast
2:54 AM 39.9 °F 35.1 °F 37.9 °F 93% 29.95 in 2.0 mi North 6.9 mph - N/A   Overcast
2:57 AM 39.2 °F 34.2 °F 37.4 °F 93% 29.93 in 5.0 mi NNW 6.9 mph - N/A   Overcast
3:07 AM 39.2 °F 35.0 °F 37.4 °F 93% 29.93 in 5.0 mi North 5.8 mph - N/A   Overcast
3:54 AM 39.0 °F 33.4 °F 37.9 °F 96% 29.97 in 2.0 mi North 8.1 mph - N/A   Overcast
4:07 AM 39.2 °F 34.2 °F 37.4 °F 93% 29.95 in 2.0 mi North 6.9 mph - N/A   Overcast
4:39 AM 39.2 °F 33.6 °F 37.4 °F 93% 29.97 in 1.5 mi North 8.1 mph - N/A   Overcast
4:54 AM 39.0 °F 33.4 °F 37.9 °F 96% 29.99 in 1.0 mi North 8.1 mph - N/A   Overcast
5:54 AM 39.0 °F 34.0 °F 39.0 °F 100% 30.01 in 1.0 mi North 6.9 mph - 0.00 in   Light Drizzle
6:36 AM 39.2 °F 34.2 °F 39.2 °F 100% 30.01 in 1.0 mi NE 6.9 mph - 0.00 in   Overcast
6:45 AM 39.2 °F 33.6 °F 39.2 °F 100% 30.01 in 2.0 mi NNE 8.1 mph - 0.00 in   Overcast
6:54 AM 39.9 °F 35.1 °F 37.9 °F 93% 30.04 in 2.0 mi NE 6.9 mph - 0.00 in   Overcast
7:54 AM 41.0 °F 36.4 °F 39.0 °F 93% 30.07 in 2.0 mi NNE 6.9 mph - N/A   Overcast
8:54 AM 41.0 °F 35.8 °F 39.0 °F 93% 30.10 in 2.5 mi NNE 8.1 mph - N/A   Overcast
9:32 AM 42.8 °F 39.3 °F 39.2 °F 87% 30.10 in 2.5 mi North 5.8 mph - N/A   Overcast
9:54 AM 42.1 °F 39.2 °F 39.0 °F 89% 30.12 in 2.5 mi North 4.6 mph - N/A   Overcast
10:54 AM 42.1 °F 38.4 °F 37.9 °F 85% 30.12 in 5.0 mi NNE 5.8 mph - N/A   Overcast
11:54 AM 43.0 °F 41.3 °F 37.9 °F 82% 30.12 in 5.0 mi North 3.5 mph - N/A   Haze
12:22 PM 44.6 °F 43.1 °F 37.4 °F 76% 30.10 in 5.0 mi NNW 3.5 mph - N/A   Haze
12:54 PM 43.0 °F 38.8 °F 37.9 °F 82% 30.12 in 6.0 mi NNW 6.9 mph - N/A   Haze
1:32 PM 44.6 °F 42.2 °F 39.2 °F 81% 30.11 in 6.0 mi NNW 4.6 mph - N/A   Haze
1:54 PM 44.1 °F 40.8 °F 37.9 °F 79% 30.12 in 6.0 mi North 5.8 mph - N/A   Haze
2:54 PM 44.1 °F 42.5 °F 37.9 °F 79% 30.14 in 7.0 mi NNE 3.5 mph - 0.00 in   Light Drizzle
3:54 PM 44.1 °F - 37.9 °F 79% 30.14 in 6.0 mi Calm Calm - 0.00 in   Haze
4:28 PM 42.8 °F - 37.4 °F 81% 30.13 in 6.0 mi Calm Calm - N/A   Haze
4:54 PM 43.0 °F - 37.9 °F 82% 30.15 in 7.0 mi Calm Calm - N/A   Overcast
5:47 PM 42.8 °F 41.1 °F 37.4 °F 81% 30.15 in 7.0 mi NNW 3.5 mph - N/A   Overcast
5:54 PM 42.1 °F 40.2 °F 37.9 °F 85% 30.17 in 6.0 mi NNW 3.5 mph - N/A   Overcast
6:54 PM 42.1 °F - 37.9 °F 85% 30.17 in 7.0 mi Calm Calm - N/A   Overcast
7:54 PM 42.1 °F - 37.9 °F 85% 30.18 in 7.0 mi Calm Calm - N/A   Overcast
8:54 PM 42.1 °F - 37.9 °F 85% 30.19 in 6.0 mi Calm Calm - N/A   Overcast
9:54 PM 42.1 °F - 39.0 °F 89% 30.19 in 6.0 mi Calm Calm - N/A   Overcast
10:54 PM 41.0 °F - 37.9 °F 89% 30.19 in 6.0 mi Calm Calm - N/A   Overcast
11:54 PM 41.0 °F - 37.9 °F 89% 30.19 in 7.0 mi Calm Calm - N/A   Overcast